Location: Tucson
(32.2217°N, 110.9265°W)
Time: 03:13:47
(UTC-07:00)

Tiros 1 - Pass Details

Date: 03 November 2021
Orbit: 630 x 663 km, 48.4° (Epoch: 07 December)

Event Time Altitude Azimuth Distance (km) Brightness Sun altitude
Rises 09:22:23 0° 308° (NW) 2,990 10.0 28.3°
Reaches altitude 10° 09:26:44 10° 345° (NNW) 2,072 9.4 28.9°
Maximum altitude 09:27:59 11° 0° (N) 2,010 9.4 29.1°
Drops below altitude 10° 09:29:15 10° 15° (NNE) 2,068 9.6 29.3°
Sets 09:33:34 0° 53° (NE) 2,971 10.6 29.9°
